Humidity-temperature Sensor

Selected Measurement Type: Relative Humidity

 
Relative Humidity [%]     6 entries per hour
Showing data from 1/22/2023 (00:00:00 Z) to 1/15/2023 (00:01:00 Z)
Previous Next [ Day | 3-Days | 7-Days ]
First Last
Prev [ Day | 3-Days | 7-Days ] Next
First Last

Start Time:     :
End Time:     :     
Time (in GMT) :00 :50 :40 :30 :20 :10
Previous Next [ Day | 3-Days | 7-Days ]
First Last
Prev [ Day | 3-Days | 7-Days ] Next
First Last


123 => good data
MM => data is determined as missing
-- => data not received/configured
Back to Top Back to Top
1/22/2023 00:00 to 23:10 100.52 100.46 100.62 100.44 100.48 100.33
1/21/2023 23:00 to 22:10 100.25 100.21 100.15 100.13 100.01 99.90
1/21/2023 22:00 to 21:10 99.66 99.59 99.39 99.72 99.61 99.94
1/21/2023 21:00 to 20:10 99.70 99.74 99.68 99.51 99.41 99.27
1/21/2023 20:00 to 19:10 99.22 98.94 98.73 98.85 98.38 97.93
1/21/2023 19:00 to 18:10 97.38 96.57 95.40 93.86 90.88 88.87
1/21/2023 18:00 to 17:10 88.33 87.61 87.66 87.98 88.13 87.90
1/21/2023 17:00 to 16:10 87.59 87.90 88.27 88.81 88.93 89.32
1/21/2023 16:00 to 15:10 89.18 89.13 89.16 88.72 88.91 89.16
1/21/2023 15:00 to 14:10 89.22 89.44 90.41 90.92 90.96 91.23
1/21/2023 14:00 to 13:10 91.50 92.09 93.02 93.88 94.62 95.28
1/21/2023 13:00 to 12:10 95.79 96.06 95.81 95.61 95.73 95.59
1/21/2023 12:00 to 11:10 95.53 94.68 93.66 92.07 91.79 91.35
1/21/2023 11:00 to 10:10 90.86 90.86 91.09 91.11 91.07 90.70
1/21/2023 10:00 to 9:10 90.63 90.59 90.33 90.08 89.92 90.04
1/21/2023 09:00 to 8:10 90.27 90.45 90.35 90.27 90.37 90.45
1/21/2023 08:00 to 7:10 90.53 90.49 89.98 90.16 90.20 90.02
1/21/2023 07:00 to 6:10 89.98 89.65 89.63 89.53 89.63 89.53
1/21/2023 06:00 to 5:10 89.34 89.30 89.46 89.44 89.13 89.38
1/21/2023 05:00 to 4:10 89.46 89.67 89.46 89.26 88.99 89.30
1/21/2023 04:00 to 3:10 89.42 89.38 89.63 89.48 89.28 88.93
1/21/2023 03:00 to 2:10 88.60 88.54 88.46 88.58 88.54 88.35
1/21/2023 02:00 to 1:10 88.66 88.77 88.79 88.93 88.91 88.81
1/21/2023 01:00 to 0:10 88.56 88.52 88.33 88.48 88.11 87.82
1/21/2023 00:00 to 23:10 87.63 87.61 87.86 87.98 87.55 87.45
1/20/2023 23:00 to 22:10 87.41 86.96 86.59 86.11 86.30 85.93
1/20/2023 22:00 to 21:10 85.56 86.44 86.22 85.97 85.48 85.54
1/20/2023 21:00 to 20:10 85.74 85.39 85.62 85.85 85.39 85.50
1/20/2023 20:00 to 19:10 85.48 85.42 85.15 84.94 84.26 84.53
1/20/2023 19:00 to 18:10 84.90 84.63 84.02 83.24 83.59 83.50
1/20/2023 18:00 to 17:10 83.55 83.13 82.33 82.31 83.32 83.36
1/20/2023 17:00 to 16:10 83.36 83.24 82.39 83.07 82.52 82.89
1/20/2023 16:00 to 15:10 83.18 83.63 83.89 83.83 84.55 83.87
1/20/2023 15:00 to 14:10 84.57 84.72 85.09 85.46 84.47 83.83
1/20/2023 14:00 to 13:10 83.46 83.92 83.61 84.08 84.94 85.05
1/20/2023 13:00 to 12:10 85.11 85.62 85.56 85.42 85.46 85.99
1/20/2023 12:00 to 11:10 86.44 87.00 87.45 87.66 87.82 88.35
1/20/2023 11:00 to 10:10 88.87 88.23 87.49 87.45 87.22 87.08
1/20/2023 10:00 to 9:10 -- -- -- -- -- --
1/20/2023 09:00 to 8:10 -- -- -- -- -- --
1/20/2023 08:00 to 7:10 -- -- -- -- -- --
1/20/2023 07:00 to 6:10 -- -- -- -- -- --
1/20/2023 06:00 to 5:10 -- -- -- -- -- --
1/20/2023 05:00 to 4:10 -- -- -- -- -- --
1/20/2023 04:00 to 3:10 -- -- -- -- -- --
1/20/2023 03:00 to 2:10 -- -- -- -- -- --
1/20/2023 02:00 to 1:10 88.07 87.96 87.98 88.09 88.58 88.93
1/20/2023 01:00 to 0:10 88.95 88.64 88.46 88.68 88.91 89.34
1/20/2023 00:00 to 23:10 90.41 91.44 91.58 91.60 91.64 91.83
1/19/2023 23:00 to 22:10 92.09 92.28 92.77 93.06 93.10 92.83
1/19/2023 22:00 to 21:10 92.57 92.55 91.19 88.68 85.27 85.19
1/19/2023 21:00 to 20:10 85.19 85.29 85.44 85.68 85.87 85.91
1/19/2023 20:00 to 19:10 85.79 85.58 85.09 85.00 85.19 85.87
1/19/2023 19:00 to 18:10 86.77 87.49 88.09 88.79 89.18 89.44
1/19/2023 18:00 to 17:10 89.38 89.28 89.32 89.59 89.57 89.94
1/19/2023 17:00 to 16:10 90.43 90.61 90.78 90.90 90.72 90.55
1/19/2023 16:00 to 15:10 90.24 90.02 89.92 89.77 89.71 89.65
1/19/2023 15:00 to 14:10 89.90 90.02 90.14 90.18 90.29 90.51
1/19/2023 14:00 to 13:10 90.72 91.29 91.93 92.28 92.71 92.92
1/19/2023 13:00 to 12:10 93.24 93.49 93.86 94.23 94.54 94.91
1/19/2023 12:00 to 11:10 95.38 95.96 96.39 96.82 97.23 97.31
1/19/2023 11:00 to 10:10 97.52 97.72 97.87 98.09 98.16 98.30
1/19/2023 10:00 to 9:10 98.59 98.63 98.71 98.69 98.79 98.71
1/19/2023 09:00 to 8:10 98.88 98.90 99.02 99.06 99.22 99.43
1/19/2023 08:00 to 7:10 99.59 99.76 99.68 99.94 100.09 100.03
1/19/2023 07:00 to 6:10 100.19 100.05 100.09 99.92 99.66 99.31
1/19/2023 06:00 to 5:10 98.88 98.61 98.09 97.48 96.68 95.53
1/19/2023 05:00 to 4:10 94.19 93.51 93.59 93.68 93.90 94.09
1/19/2023 04:00 to 3:10 94.37 94.29 94.72 94.89 95.05 95.51
1/19/2023 03:00 to 2:10 95.83 96.29 96.76 97.29 97.87 98.46
1/19/2023 02:00 to 1:10 98.88 99.22 99.47 99.64 99.76 99.86
1/19/2023 01:00 to 0:10 100.33 100.54 100.85 100.91 100.91 100.91
1/19/2023 00:00 to 23:10 100.91 100.91 100.91 100.91 100.91 100.85
1/18/2023 23:00 to 22:10 100.60 100.50 100.56 100.33 100.15 99.98
1/18/2023 22:00 to 21:10 99.80 99.90 99.86 99.90 99.70 99.76
1/18/2023 21:00 to 20:10 99.55 99.59 99.55 99.61 99.41 99.41
1/18/2023 20:00 to 19:10 99.35 99.27 99.16 98.90 98.94 98.69
1/18/2023 19:00 to 18:10 98.55 98.55 98.46 98.46 98.30 98.51
1/18/2023 18:00 to 17:10 98.85 99.31 99.74 100.17 100.52 100.83
1/18/2023 17:00 to 16:10 100.91 100.91 100.91 100.91 100.91 100.91
1/18/2023 16:00 to 15:10 100.91 100.91 100.91 100.91 100.91 100.91
1/18/2023 15:00 to 14:10 100.91 100.91 100.91 100.91 100.91 100.91
1/18/2023 14:00 to 13:10 100.91 100.91 100.91 100.91 100.91 100.91
1/18/2023 13:00 to 12:10 100.91 100.91 100.91 100.91 100.91 100.91
1/18/2023 12:00 to 11:10 100.91 100.91 100.91 100.83 100.60 100.50
1/18/2023 11:00 to 10:10 100.36 100.40 100.23 99.74 99.74 99.20
1/18/2023 10:00 to 9:10 99.53 99.33 99.37 98.75 98.14 97.87
1/18/2023 09:00 to 8:10 96.92 96.68 95.71 94.91 94.13 94.05
1/18/2023 08:00 to 7:10 95.01 96.12 96.04 96.31 96.47 95.98
1/18/2023 07:00 to 6:10 95.77 95.28 95.44 96.16 96.47 96.57
1/18/2023 06:00 to 5:10 96.27 95.44 94.87 93.94 92.28 91.54
1/18/2023 05:00 to 4:10 91.03 90.88 92.53 92.69 93.31 94.25
1/18/2023 04:00 to 3:10 95.34 96.08 95.77 95.81 95.69 95.53
1/18/2023 03:00 to 2:10 95.22 95.03 95.24 95.85 96.16 96.16
1/18/2023 02:00 to 1:10 96.47 97.11 97.56 97.81 97.66 97.93
1/18/2023 01:00 to 0:10 97.64 97.58 97.21 96.86 96.98 97.54
1/18/2023 00:00 to 23:10 97.31 96.72 95.67 94.48 94.48 94.33
1/17/2023 23:00 to 22:10 94.64 95.77 95.92 95.07 94.48 93.88
1/17/2023 22:00 to 21:10 93.66 93.22 93.00 92.57 92.20 91.72
1/17/2023 21:00 to 20:10 91.54 91.27 90.84 90.63 91.03 91.21
1/17/2023 20:00 to 19:10 91.29 91.27 90.92 90.86 91.27 91.95
1/17/2023 19:00 to 18:10 92.01 91.05 89.87 89.11 89.59 90.08
1/17/2023 18:00 to 17:10 90.00 91.17 92.44 93.37 93.76 93.14
1/17/2023 17:00 to 16:10 91.87 91.56 92.28 93.20 93.82 94.60
1/17/2023 16:00 to 15:10 94.58 94.79 94.48 94.85 94.95 94.93
1/17/2023 15:00 to 14:10 94.93 94.77 94.87 94.85 95.20 96.00
1/17/2023 14:00 to 13:10 96.14 96.49 96.66 96.68 96.98 96.96
1/17/2023 13:00 to 12:10 97.31 97.31 97.25 97.40 97.03 96.55
1/17/2023 12:00 to 11:10 96.20 96.22 96.47 96.49 96.88 97.64
1/17/2023 11:00 to 10:10 97.99 97.91 97.05 96.16 94.99 93.33
1/17/2023 10:00 to 9:10 93.72 93.78 93.49 93.20 93.06 92.46
1/17/2023 09:00 to 8:10 91.89 91.62 91.07 90.39 90.22 90.92
1/17/2023 08:00 to 7:10 91.13 91.11 91.15 91.33 91.54 91.97
1/17/2023 07:00 to 6:10 91.79 91.99 92.26 92.69 92.73 93.10
1/17/2023 06:00 to 5:10 93.06 93.02 92.48 92.18 91.74 91.37
1/17/2023 05:00 to 4:10 91.66 91.56 91.64 91.89 92.55 92.90
1/17/2023 04:00 to 3:10 92.65 92.36 92.09 91.85 91.99 91.87
1/17/2023 03:00 to 2:10 91.52 91.66 91.48 91.00 90.66 90.80
1/17/2023 02:00 to 1:10 91.15 91.72 92.11 92.69 93.39 93.66
1/17/2023 01:00 to 0:10 93.41 93.35 93.20 92.83 92.48 91.83
1/17/2023 00:00 to 23:10 91.89 92.22 91.89 91.72 90.94 90.39
1/16/2023 23:00 to 22:10 90.27 90.66 90.92 90.00 87.68 87.80
1/16/2023 22:00 to 21:10 89.79 90.76 90.94 90.90 90.55 90.04
1/16/2023 21:00 to 20:10 90.68 90.72 90.80 90.90 90.80 90.41
1/16/2023 20:00 to 19:10 89.96 89.09 88.56 88.64 88.93 88.97
1/16/2023 19:00 to 18:10 89.46 89.90 90.00 90.12 90.55 90.84
1/16/2023 18:00 to 17:10 90.66 90.49 90.68 91.31 91.31 90.78
1/16/2023 17:00 to 16:10 90.06 89.92 90.12 90.49 90.78 91.52
1/16/2023 16:00 to 15:10 91.97 92.20 91.56 91.40 92.07 91.48
1/16/2023 15:00 to 14:10 90.55 90.80 90.66 90.49 90.31 90.68
1/16/2023 14:00 to 13:10 91.03 91.70 92.22 91.93 91.09 90.94
1/16/2023 13:00 to 12:10 90.78 90.41 90.55 90.88 90.84 90.76
1/16/2023 12:00 to 11:10 90.82 90.55 90.92 90.82 91.31 91.19
1/16/2023 11:00 to 10:10 90.94 91.15 91.25 91.09 91.25 91.21
1/16/2023 10:00 to 9:10 91.21 91.25 91.15 91.33 91.60 91.79
1/16/2023 09:00 to 8:10 92.16 92.73 92.81 92.63 92.42 92.42
1/16/2023 08:00 to 7:10 92.48 93.04 93.22 93.10 93.02 92.83
1/16/2023 07:00 to 6:10 92.48 92.92 93.02 93.20 93.61 93.88
1/16/2023 06:00 to 5:10 94.19 94.15 94.17 94.13 93.84 93.37
1/16/2023 05:00 to 4:10 93.16 93.22 93.10 93.12 93.39 93.59
1/16/2023 04:00 to 3:10 93.86 94.29 94.52 94.74 94.58 94.54
1/16/2023 03:00 to 2:10 94.15 94.03 94.68 94.81 94.91 94.58
1/16/2023 02:00 to 1:10 94.64 94.54 94.66 94.95 95.22 95.63
1/16/2023 01:00 to 0:10 96.00 96.33 96.55 96.16 96.02 95.79
1/16/2023 00:00 to 23:10 95.77 95.90 96.04 95.90 95.55 95.30
1/15/2023 23:00 to 22:10 94.72 94.66 94.27 94.44 94.70 95.14
1/15/2023 22:00 to 21:10 95.38 95.75 95.85 96.00 95.85 95.85
1/15/2023 21:00 to 20:10 96.04 96.22 96.22 96.06 96.31 96.04
1/15/2023 20:00 to 19:10 96.18 96.72 96.90 96.92 96.84 96.39
1/15/2023 19:00 to 18:10 96.10 95.81 95.59 95.61 95.53 95.36
1/15/2023 18:00 to 17:10 95.48 95.55 95.36 95.81 95.87 95.69
1/15/2023 17:00 to 16:10 95.46 95.24 95.09 94.95 95.34 95.32
1/15/2023 16:00 to 15:10 95.24 94.29 93.41 92.42 91.46 91.72
1/15/2023 15:00 to 14:10 91.89 92.20 92.28 92.26 92.53 93.02
1/15/2023 14:00 to 13:10 93.14 93.68 94.56 94.81 95.38 95.30
1/15/2023 13:00 to 12:10 95.11 95.24 94.95 94.87 94.21 93.98
1/15/2023 12:00 to 11:10 93.98 93.96 94.00 94.52 95.20 95.55
1/15/2023 11:00 to 10:10 95.34 95.67 95.16 94.97 94.99 93.66
1/15/2023 10:00 to 9:10 93.39 92.98 92.16 91.29 91.11 91.11
1/15/2023 09:00 to 8:10 91.27 90.94 90.57 89.18 88.54 88.72
1/15/2023 08:00 to 7:10 88.68 87.88 87.55 87.57 87.22 87.29
1/15/2023 07:00 to 6:10 86.79 86.38 86.85 86.92 87.24 87.35
1/15/2023 06:00 to 5:10 87.39 86.50 86.13 85.95 86.40 87.04
1/15/2023 05:00 to 4:10 86.90 86.98 87.51 87.76 87.61 86.96
1/15/2023 04:00 to 3:10 87.06 87.26 87.78 88.31 88.93 88.15
1/15/2023 03:00 to 2:10 87.72 87.20 86.16 86.61 87.41 88.03
1/15/2023 02:00 to 1:10 87.35 87.10 86.11 85.29 86.42 87.82
1/15/2023 01:00 to 0:10 88.17 88.52 87.55 86.87 87.41 87.47